User: anonymous   Login
Location: Dead Woman Crossing
(43.5369°N, 106.3228°W)
Time: 10:49:17
(UTC+00:00)
Language:

Meteor 1-22 Rocket - Orbit

View from above orbital plane
View from above orbital plane
View from above satellite
View from above satellite

Ground track
Ground track

The orbit data is extracted from the following two-line orbital elements,

1  8294U 75087B   22333.48638077 -.00000036  00000-0 -27069-4 0  9995
2  8294  81.2163 241.5768 0106442 184.3116 175.7149 14.08718653425198
Epoch (UTC): 29 November 2022 11:40:23
Eccentricity: 0.0106442
inclination: 81.2163°
perigee height: 786 km
apogee height: 941 km
right ascension of ascending node: 241.5768°
argument of perigee: 184.3116°
revolutions per day: 14.08718653
mean anomaly at epoch: 175.7149°
orbit number at epoch: 42519

The dashed part of the orbit path shows where the satellite is in the earth's shadow,  

DLR